Torna al catalogo

FREGAT DEB

LostUNKNOWN
NORAD 46520·DEBRIS·🇷🇺 Russia

Lanciato Jul 18, 2011 da Baikonur Cosmodrome

Loading…

Prossimi Passaggi (prossime 24 ore)

TLE

ObsoletoSource: Space-Track

Epoca: Apr 21, 2022, 02:00 UTC

1 46520U 11037LY  22111.08377025  .00367144  00000-0  25882+0 0  9997
2 46520  51.3121 117.3671 2102666 318.7339  27.1859 10.55420979 57562

Traccia FREGAT DEB in tempo reale con AllMySat

Download on the App Store